Location: El Peñón
(10.3719°N, 67.3319°W)
Time: 18:39:53
(UTC+00:00)

Helios 1B rocket - Pass Details

Date: 13 June 2024
Orbit: 533 x 540 km, 98.2° (Epoch: 23 July)

Event Time Altitude Azimuth Distance (km) Brightness Sun altitude
Rises 22:59:57 0° 172° (S) 2,694 5.5 -2.8°
Reaches altitude 10° 23:02:05 10° 174° (S) 1,799 4.7 -3.2°
Maximum altitude 23:05:57 71° 258° (WSW) 573 2.6 -4.1°
Drops below altitude 10° 23:09:47 10° 342° (NNW) 1,790 5.6 -5.0°
Sets 23:11:54 0° 345° (NNW) 2,678 6.5 -5.4°
